Location: *
(0.1100°N, 5.5000°E)
Time: 18:18:07
(UTC+00:00)

Cosmos 1818 - Pass Details

Date: 08 December 2023
Orbit: 771 x 801 km, 65.0° (Epoch: 02 March)

Event Time Altitude Azimuth Distance (km) Brightness Sun altitude
Exits shadow 03:23:10 54° 185° (S) 958 4.0 -29.0°
Drops below altitude 10° 03:27:25 10° 164° (SSE) 2,353 6.5 -28.0°
Sets 03:29:50 0° 162° (SSE) 3,279 7.4 -27.5°
